| time (UTC) | temp F | wind direction | speed MPH | gust MPH | rain 1hr in | rain 24hr in | rain mn in | humidity % | barometer mb |
| 20260503225426 | 62 | 182 | 4.0 | 8.0 | 0.00 | 0.00 | 0.00 | 76 | 1013.9 |
| 20260503224929 | 62 | 177 | 3.0 | 9.0 | 0.00 | 0.00 | 0.00 | 76 | 1014.0 |
| 20260503224429 | 62 | 187 | 3.0 | 9.0 | 0.00 | 0.00 | 0.00 | 75 | 1014.0 |
| 20260503223425 | 62 | 210 | 4.0 | 8.0 | 0.00 | 0.00 | 0.00 | 75 | 1014.0 |
| 20260503222426 | 62 | 213 | 3.0 | 8.0 | 0.00 | 0.00 | 0.00 | 75 | 1014.0 |
| 20260503221925 | 62 | 215 | 4.0 | 8.0 | 0.00 | 0.00 | 0.00 | 75 | 1014.1 |
| 20260503220930 | 62 | 222 | 4.0 | 9.0 | 0.00 | 0.00 | 0.00 | 75 | 1014.1 |
| 20260503215931 | 62 | 226 | 4.0 | 7.0 | 0.00 | 0.00 | 0.00 | 74 | 1014.0 |
| 20260503215426 | 62 | 232 | 4.0 | 8.0 | 0.00 | 0.00 | 0.00 | 74 | 1013.9 |
| 20260503214925 | 62 | 230 | 4.0 | 8.0 | 0.00 | 0.00 | 0.00 | 75 | 1014.0 |
| 20260503214426 | 62 | 223 | 3.0 | 7.0 | 0.00 | 0.00 | 0.00 | 75 | 1013.9 |
| 20260503213925 | 62 | 221 | 3.0 | 6.0 | 0.00 | 0.00 | 0.00 | 75 | 1013.9 |
| 20260503213429 | 62 | 223 | 3.0 | 6.0 | 0.00 | 0.00 | 0.00 | 75 | 1013.9 |
| 20260503212925 | 62 | 226 | 4.0 | 6.0 | 0.00 | 0.00 | 0.00 | 74 | 1013.9 |
| 20260503211925 | 63 | 235 | 3.0 | 7.0 | 0.00 | 0.00 | 0.00 | 74 | 1013.9 |
| 20260503211426 | 63 | 233 | 4.0 | 8.0 | 0.00 | 0.00 | 0.00 | 74 | 1013.8 |
| 20260503210426 | 63 | 233 | 2.0 | 7.0 | 0.00 | 0.00 | 0.00 | 73 | 1013.8 |
| 20260503205925 | 63 | 232 | 3.0 | 8.0 | 0.00 | 0.00 | 0.00 | 74 | 1013.7 |
| 20260503205425 | 63 | 235 | 4.0 | 9.0 | 0.00 | 0.00 | 0.00 | 73 | 1013.8 |
| 20260503204929 | 63 | 237 | 4.0 | 9.0 | 0.00 | 0.00 | 0.00 | 73 | 1013.7 |
| 20260503204426 | 63 | 237 | 5.0 | 10.0 | 0.00 | 0.00 | 0.00 | 73 | 1013.6 |
| 20260503203925 | 63 | 237 | 5.0 | 11.0 | 0.00 | 0.00 | 0.00 | 73 | 1013.5 |
| 20260503203426 | 63 | 239 | 4.0 | 11.0 | 0.00 | 0.00 | 0.00 | 72 | 1013.5 |
| 20260503202925 | 63 | 253 | 4.0 | 10.0 | 0.00 | 0.00 | 0.00 | 72 | 1013.4 |
| 20260503202426 | 64 | 262 | 4.0 | 10.0 | 0.00 | 0.00 | 0.00 | 71 | 1013.3 |
| 20260503201925 | 64 | 250 | 4.0 | 9.0 | 0.00 | 0.00 | 0.00 | 71 | 1013.3 |
| 20260503201425 | 64 | 247 | 4.0 | 8.0 | 0.00 | 0.00 | 0.00 | 71 | 1013.3 |
| 20260503200429 | 64 | 242 | 6.0 | 10.0 | 0.00 | 0.00 | 0.00 | 70 | 1013.1 |
| 20260503195928 | 64 | 239 | 6.0 | 12.0 | 0.00 | 0.00 | 0.00 | 69 | 1013.0 |
| 20260503195428 | 65 | 249 | 5.0 | 12.0 | 0.00 | 0.00 | 0.00 | 69 | 1013.0 |
| 20260503194929 | 65 | 250 | 5.0 | 12.0 | 0.00 | 0.00 | 0.00 | 68 | 1012.9 |
| 20260503194425 | 65 | 259 | 5.0 | 12.0 | 0.00 | 0.00 | 0.00 | 68 | 1012.9 |
| 20260503193929 | 65 | 258 | 5.0 | 11.0 | 0.00 | 0.00 | 0.00 | 67 | 1012.7 |
| 20260503193429 | 65 | 251 | 5.0 | 14.0 | 0.00 | 0.00 | 0.00 | 67 | 1012.7 |
| 20260503192426 | 66 | 264 | 6.0 | 14.0 | 0.00 | 0.00 | 0.00 | 65 | 1012.7 |
| 20260503191925 | 66 | 261 | 5.0 | 13.0 | 0.00 | 0.00 | 0.00 | 65 | 1012.6 |
| 20260503191426 | 66 | 255 | 6.0 | 14.0 | 0.00 | 0.00 | 0.00 | 64 | 1012.6 |
| 20260503190925 | 67 | 240 | 6.0 | 14.0 | 0.00 | 0.00 | 0.00 | 63 | 1012.5 |
| 20260503190429 | 67 | 244 | 6.0 | 15.0 | 0.00 | 0.00 | 0.00 | 62 | 1012.5 |
| 20260503185925 | 67 | 243 | 6.0 | 15.0 | 0.00 | 0.00 | 0.00 | 60 | 1012.4 |
| 20260503185428 | 67 | 236 | 7.0 | 14.0 | 0.00 | 0.00 | 0.00 | 59 | 1012.4 |
| 20260503184429 | 68 | 244 | 7.0 | 14.0 | 0.00 | 0.00 | 0.00 | 60 | 1012.3 |
| 20260503183929 | 68 | 239 | 8.0 | 16.0 | 0.00 | 0.00 | 0.00 | 61 | 1012.3 |
| 20260503183425 | 68 | 236 | 9.0 | 18.0 | 0.00 | 0.00 | 0.00 | 61 | 1012.4 |
| 20260503182925 | 69 | 234 | 10.0 | 18.0 | 0.00 | 0.00 | 0.00 | 60 | 1012.3 |
| 20260503182429 | 69 | 234 | 10.0 | 17.0 | 0.00 | 0.00 | 0.00 | 59 | 1012.3 |
| 20260503181429 | 69 | 238 | 10.0 | 17.0 | 0.00 | 0.00 | 0.00 | 57 | 1012.4 |
| 20260503180925 | 70 | 245 | 8.0 | 17.0 | 0.00 | 0.00 | 0.00 | 56 | 1012.4 |
| 20260503180429 | 70 | 243 | 8.0 | 19.0 | 0.00 | 0.00 | 0.00 | 57 | 1012.3 |
| 20260503175929 | 70 | 235 | 9.0 | 19.0 | 0.00 | 0.00 | 0.00 | 57 | 1012.3 |
| 20260503174925 | 71 | 245 | 7.0 | 19.0 | 0.00 | 0.00 | 0.00 | 56 | 1012.3 |
| 20260503174425 | 71 | 245 | 7.0 | 19.0 | 0.00 | 0.00 | 0.00 | 55 | 1012.1 |
| 20260503173925 | 71 | 243 | 7.0 | 14.0 | 0.00 | 0.00 | 0.00 | 54 | 1012.2 |
| 20260503173425 | 72 | 247 | 8.0 | 15.0 | 0.00 | 0.00 | 0.00 | 54 | 1012.1 |
| 20260503172928 | 72 | 247 | 8.0 | 15.0 | 0.00 | 0.00 | 0.00 | 54 | 1012.1 |
| 20260503172428 | 72 | 246 | 8.0 | 15.0 | 0.00 | 0.00 | 0.00 | 54 | 1012.1 |
| 20260503171429 | 72 | 237 | 9.0 | 17.0 | 0.00 | 0.00 | 0.00 | 54 | 1012.1 |
| 20260503170926 | 72 | 248 | 8.0 | 18.0 | 0.00 | 0.00 | 0.00 | 53 | 1012.3 |
| 20260503170425 | 73 | 267 | 7.0 | 18.0 | 0.00 | 0.00 | 0.00 | 52 | 1012.1 |
| 20260503150424 | 75 | 243 | 8.0 | 15.0 | 0.00 | 0.00 | 0.00 | 47 | 1012.3 |
| 20260503130925 | 75 | 261 | 6.0 | 16.0 | 0.00 | 0.00 | 0.00 | 51 | 1012.9 |
| 20260503090424 | 68 | 214 | 4.0 | 13.0 | 0.00 | 0.00 | 0.00 | 73 | 1014.2 |
| 20260503081424 | 66 | 218 | 3.0 | 9.0 | 0.00 | 0.00 | 0.00 | 79 | 1014.2 |
| 20260503080925 | 66 | 223 | 4.0 | 8.0 | 0.00 | 0.00 | 0.00 | 79 | 1014.1 |
| 20260503080424 | 65 | 224 | 5.0 | 8.0 | 0.00 | 0.00 | 0.00 | 80 | 1014.3 |
| 20260503072925 | 64 | 227 | 3.0 | 5.0 | 0.00 | 0.00 | 0.00 | 84 | 1014.1 |
| 20260503072424 | 64 | 214 | 2.0 | 5.0 | 0.00 | 0.00 | 0.00 | 85 | 1014.1 |
| 20260503071924 | 63 | 197 | 3.0 | 6.0 | 0.00 | 0.00 | 0.00 | 85 | 1014.1 |
| 20260503071424 | 63 | 189 | 2.0 | 6.0 | 0.00 | 0.00 | 0.00 | 86 | 1014.0 |
| 20260503070928 | 63 | 197 | 2.0 | 5.0 | 0.00 | 0.00 | 0.00 | 86 | 1014.0 |
| 20260503070428 | 62 | 225 | 3.0 | 6.0 | 0.00 | 0.00 | 0.00 | 86 | 1014.0 |
| 20260503054924 | 62 | 166 | 2.0 | 5.0 | 0.00 | 0.00 | 0.00 | 86 | 1013.6 |
| 20260503054427 | 62 | 162 | 1.0 | 4.0 | 0.00 | 0.00 | 0.00 | 86 | 1013.6 |
| 20260503053928 | 62 | 161 | 1.0 | 3.0 | 0.00 | 0.00 | 0.00 | 86 | 1013.5 |
| 20260503053424 | 62 | 160 | 1.0 | 2.0 | 0.00 | 0.00 | 0.00 | 86 | 1013.4 |
| 20260503052928 | 62 | 161 | 1.0 | 3.0 | 0.00 | 0.00 | 0.00 | 86 | 1013.4 |
| 20260503051924 | 62 | 161 | 1.0 | 3.0 | 0.00 | 0.00 | 0.00 | 86 | 1013.5 |
| 20260503051424 | 62 | 161 | 1.0 | 3.0 | 0.00 | 0.00 | 0.00 | 86 | 1013.5 |
| 20260503050924 | 62 | 160 | 1.0 | 3.0 | 0.00 | 0.00 | 0.00 | 86 | 1013.4 |
| 20260503050424 | 62 | 160 | 1.0 | 3.0 | 0.00 | 0.00 | 0.00 | 86 | 1013.4 |
| 20260503045924 | 62 | 160 | 1.0 | 3.0 | 0.00 | 0.00 | 0.00 | 86 | 1013.4 |
| 20260503045424 | 62 | 160 | 2.0 | 5.0 | 0.00 | 0.00 | 0.00 | 85 | 1013.4 |
| 20260503044924 | 62 | 163 | 2.0 | 5.0 | 0.00 | 0.00 | 0.00 | 85 | 1013.4 |
| 20260503044424 | 62 | 170 | 1.0 | 5.0 | 0.00 | 0.00 | 0.00 | 85 | 1013.4 |
| 20260503043928 | 62 | 186 | 1.0 | 3.0 | 0.00 | 0.00 | 0.00 | 85 | 1013.5 |
| 20260503043424 | 62 | 186 | 1.0 | 2.0 | 0.00 | 0.00 | 0.00 | 85 | 1013.5 |
| 20260503042927 | 62 | 186 | 1.0 | 3.0 | 0.00 | 0.00 | 0.00 | 85 | 1013.4 |
| 20260503042424 | 62 | 187 | 1.0 | 3.0 | 0.00 | 0.00 | 0.00 | 85 | 1013.5 |
| 20260503041928 | 62 | 188 | 1.0 | 3.0 | 0.00 | 0.00 | 0.00 | 85 | 1013.5 |
| 20260503040924 | 62 | 186 | 1.0 | 4.0 | 0.00 | 0.00 | 0.00 | 84 | 1013.4 |
| 20260503040428 | 62 | 183 | 1.0 | 4.0 | 0.00 | 0.00 | 0.00 | 84 | 1013.5 |
| 20260503035424 | 63 | 184 | 1.0 | 4.0 | 0.00 | 0.00 | 0.00 | 84 | 1013.7 |
| 20260503034923 | 63 | 193 | 2.0 | 4.0 | 0.00 | 0.00 | 0.00 | 83 | 1013.6 |
| 20260503034428 | 63 | 202 | 1.0 | 4.0 | 0.00 | 0.00 | 0.00 | 83 | 1013.7 |
| 20260503033924 | 63 | 207 | 1.0 | 3.0 | 0.00 | 0.00 | 0.00 | 83 | 1013.7 |
| 20260503033427 | 63 | 207 | 1.0 | 4.0 | 0.00 | 0.00 | 0.00 | 83 | 1013.6 |
| 20260503032925 | 63 | 216 | 2.0 | 5.0 | 0.00 | 0.00 | 0.00 | 83 | 1013.6 |
| 20260503032424 | 64 | 252 | 2.0 | 6.0 | 0.00 | 0.00 | 0.00 | 83 | 1013.6 |
| 20260503031923 | 64 | 277 | 2.0 | 6.0 | 0.00 | 0.00 | 0.00 | 83 | 1013.7 |
| 20260503031425 | 64 | 269 | 2.0 | 6.0 | 0.00 | 0.00 | 0.00 | 83 | 1013.8 |
| 20260503030424 | 63 | 220 | 3.0 | 6.0 | 0.00 | 0.00 | 0.00 | 82 | 1013.8 |
| 20260503025928 | 63 | 218 | 2.0 | 4.0 | 0.00 | 0.00 | 0.00 | 82 | 1013.9 |
| 20260503025424 | 63 | 214 | 1.0 | 4.0 | 0.00 | 0.00 | 0.00 | 82 | 1013.7 |
| 20260503024924 | 63 | 223 | 1.0 | 4.0 | 0.00 | 0.00 | 0.00 | 82 | 1013.7 |
| 20260503024424 | 63 | 226 | 2.0 | 4.0 | 0.00 | 0.00 | 0.00 | 82 | 1013.7 |
| 20260503023923 | 63 | 230 | 2.0 | 4.0 | 0.00 | 0.00 | 0.00 | 82 | 1013.8 |
| 20260503023424 | 63 | 218 | 2.0 | 4.0 | 0.00 | 0.00 | 0.00 | 82 | 1013.8 |
| 20260503022927 | 63 | 215 | 2.0 | 5.0 | 0.00 | 0.00 | 0.00 | 82 | 1013.7 |
| 20260503022424 | 63 | 228 | 3.0 | 6.0 | 0.00 | 0.00 | 0.00 | 82 | 1014.0 |
| 20260503021925 | 63 | 220 | 2.0 | 6.0 | 0.00 | 0.00 | 0.00 | 82 | 1014.0 |
| 20260503021427 | 63 | 175 | 1.0 | 4.0 | 0.00 | 0.00 | 0.00 | 82 | 1013.9 |
| 20260503020924 | 63 | 175 | 1.0 | 4.0 | 0.00 | 0.00 | 0.00 | 82 | 1013.8 |
| 20260503015930 | 63 | 186 | 2.0 | 4.0 | 0.00 | 0.00 | 0.00 | 82 | 1013.8 |
| 20260503015434 | 64 | 200 | 2.0 | 7.0 | 0.00 | 0.00 | 0.00 | 82 | 1013.9 |
| 20260503014930 | 63 | 193 | 3.0 | 7.0 | 0.00 | 0.00 | 0.00 | 82 | 1014.0 |
| 20260503014430 | 63 | 184 | 3.0 | 7.0 | 0.00 | 0.00 | 0.00 | 81 | 1014.0 |
| 20260503013930 | 63 | 183 | 3.0 | 6.0 | 0.00 | 0.00 | 0.00 | 81 | 1014.2 |
| 20260503013434 | 63 | 178 | 3.0 | 6.0 | 0.00 | 0.00 | 0.00 | 81 | 1014.3 |
| 20260503012934 | 64 | 190 | 3.0 | 6.0 | 0.00 | 0.00 | 0.00 | 81 | 1014.4 |
| 20260503012430 | 64 | 197 | 3.0 | 7.0 | 0.00 | 0.00 | 0.00 | 81 | 1014.4 |
| 20260503011930 | 64 | 186 | 3.0 | 8.0 | 0.00 | 0.00 | 0.00 | 81 | 1014.6 |
| 20260503010930 | 64 | 188 | 3.0 | 7.0 | 0.00 | 0.00 | 0.00 | 80 | 1014.6 |
| 20260503010434 | 64 | 194 | 3.0 | 8.0 | 0.00 | 0.00 | 0.00 | 80 | 1014.7 |
| 20260503005934 | 64 | 206 | 2.0 | 8.0 | 0.00 | 0.00 | 0.00 | 80 | 1014.9 |
| 20260503005431 | 64 | 197 | 3.0 | 7.0 | 0.00 | 0.00 | 0.00 | 79 | 1015.0 |
| 20260503004934 | 64 | 206 | 3.0 | 7.0 | 0.00 | 0.00 | 0.00 | 79 | 1015.1 |
| 20260503003934 | 64 | 208 | 2.0 | 7.0 | 0.00 | 0.00 | 0.00 | 78 | 1015.1 |
| 20260503003430 | 63 | 204 | 2.0 | 7.0 | 0.00 | 0.00 | 0.00 | 78 | 1015.1 |
| 20260503002934 | 63 | 201 | 3.0 | 7.0 | 0.00 | 0.00 | 0.00 | 78 | 1015.1 |
| 20260503002431 | 63 | 211 | 3.0 | 6.0 | 0.00 | 0.00 | 0.00 | 77 | 1015.1 |
| 20260503001930 | 63 | 221 | 3.0 | 6.0 | 0.00 | 0.00 | 0.00 | 77 | 1015.2 |
| 20260503000930 | 63 | 224 | 3.0 | 6.0 | 0.00 | 0.00 | 0.00 | 76 | 1015.3 |
| 20260503000430 | 63 | 228 | 3.0 | 6.0 | 0.00 | 0.00 | 0.00 | 76 | 1015.2 |
| 20260502235931 | 63 | 229 | 4.0 | 6.0 | 0.00 | 0.00 | 0.00 | 76 | 1015.3 |
| 20260502235430 | 63 | 229 | 4.0 | 7.0 | 0.00 | 0.00 | 0.00 | 76 | 1015.4 |
| 20260502234930 | 63 | 227 | 3.0 | 7.0 | 0.00 | 0.00 | 0.00 | 76 | 1015.4 |
| 20260502234430 | 63 | 221 | 3.0 | 6.0 | 0.00 | 0.00 | 0.00 | 76 | 1015.3 |
| 20260502233930 | 63 | 231 | 3.0 | 5.0 | 0.00 | 0.00 | 0.00 | 75 | 1015.3 |
| 20260502232430 | 64 | 226 | 3.0 | 6.0 | 0.00 | 0.00 | 0.00 | 75 | 1015.5 |
| 20260502231934 | 64 | 231 | 3.0 | 7.0 | 0.00 | 0.00 | 0.00 | 75 | 1015.5 |
| 20260502230430 | 64 | 231 | 4.0 | 7.0 | 0.00 | 0.00 | 0.00 | 74 | 1015.5 |
| 20260502225429 | 64 | 226 | 4.0 | 8.0 | 0.00 | 0.00 | 0.00 | 74 | 1015.4 |